Regional Weather Roundup
Issued by NWS

Home | Current Version | Previous Version | Graphics & Text | Print | Product List | Glossary On
Versions: 1 2 3 4 5 6 7 8 9 10 11 12 13 14 15 16 17 18 19 20 21 22 23 24 25 26 27 28 29 30 31 32 33 34 35 36 37 38 39 40 41 42 43 44 45 46 47 48 49 50
369
ASUS43 KLOT 251112
RWRIL

ILLINOIS REGIONAL WEATHER ROUNDUP
NATIONAL WEATHER SERVICE CHICAGO/ROMEOVILLE IL
500 AM CST SAT FEB 25 2017

NOTE: "FAIR" INDICATES FEW OR NO CLOUDS BELOW 12,000 FEET WITH NO
SIGNIFICANT WEATHER AND/OR OBSTRUCTIONS TO VISIBILITY.

* THESE STATIONS ARE NOT UNDER NWS QUALITY CONTROL. THEY ALSO MAY NOT
  REPORT WEATHER SUCH AS PRECIPITATION OR FOG.

ILZ001-002-007-009-015-016-024-251200-
NORTHWEST ILLINOIS

CITY           SKY/WX    TMP DP  RH WIND       PRES   REMARKS
MOLINE         FLURRIES  24  17  74 NW18G25   29.85R WCI  10
STERLING*      FLURRIES  21  16  81 NW16G26   29.79R WCI   7
$$

ILZ003-004-008-010-011-017-018-251200-
NORTH CENTRAL ILLINOIS

CITY           SKY/WX    TMP DP  RH WIND       PRES   REMARKS
ROCKFORD       CLOUDY    20  15  81 NW13      29.75R WCI   7
FREEPORT*      CLOUDY    19  15  84 NW15G21   29.76R FOG     WCI   5
ROCHELLE*      CLOUDY    21  17  83 NW16G28   29.75R WCI   7
DE KALB*       CLOUDY    22  19  87 NW23G29   29.71R WCI   6
PERU*          LGT SNOW  23  18  83 NW23G30   29.78R WCI   7
$$

ILZ005-006-012>014-019>023-251200-
NORTHEAST ILLINOIS

CITY           SKY/WX    TMP DP  RH WIND       PRES   REMARKS
CHICAGO-OHARE  CLOUDY    27  19  72 NW13      29.67R WCI  16
CHICAGO-MIDWAY FLURRIES  28  19  69 NW18      29.67R WCI  15
AURORA         CLOUDY    25  18  74 W21       29.71R WCI  11
LANSING*       CLOUDY    30  25  81 W18G25    29.66R WCI  18
JOLIET*        CLOUDY    28  23  81 NW16G25   29.71R WCI  16
WAUKEGAN       MOCLDY    23  17  78 W10G21    29.65R WCI  12
DUPAGE AIRPORT CLOUDY    24  16  71 NW16G24   29.68R WCI  11
KANKAKEE*      FLURRIES  30  24  77 W18G28    29.71R WCI  18
WHEELING       CLOUDY    24  16  71 NW16      29.68R WCI  11
MORRIS*        CLOUDY    26  19  77 NW25      29.71R WCI  10
ROMEOVILLE*    FLURRIES  26  24  89 NW18G29   29.70R WCI  13
NORTHERLY ISL    N/A     28  20  71 W13         N/A  WCI  18
$$

LMZ740>746-251200-
SOUTHERN LAKE MICHIGAN

STATION/POSITION SKY/WX   TEMP    WIND        PRES    VSBY  WAVE
                          AIR SEA DIR/SP/G                  HT/PER
                          (F)     (DEG/KT/KT) (MB)    (MI)  (FT/S)
HARRISON CRIB              29     290/ 16/ 18   N/A
BURNHAM HARBOR             28     280/ 17/ 20   N/A
CALUMET HARBOR             29     280/ 10/ 17 1003.9R
BURNS HARBOR               32     280/ 17/ 22 1004.1R
MICHIGAN CITY              31     250/ 23/ 25   N/A
$$

ILZ025>027-034>036-040-047-049-050-058-095>099-251200-
WEST-CENTRAL ILLINOIS

CITY           SKY/WX    TMP DP  RH WIND       PRES   REMARKS
QUINCY         CLOUDY    25  16  68 NW25G32   29.94R WCI   9
GALESBURG*     CLOUDY    22  19  87 W14       29.85R WCI   9
MACOMB*        FLURRIES  25  20  81 NW23G32   29.90R WCI  10
JACKSONVILLE*  CLOUDY    27  18  71 W17G25    29.90R WCI  14
PITTSFIELD*    CLOUDY    28  16  62 W15G26    29.94R WCI  16
$$

ILZ028>032-037-038-041>044-048-051>054-059>061-251200-
CENTRAL ILLINOIS

CITY           SKY/WX    TMP DP  RH WIND       PRES   REMARKS
PONTIAC        FLURRIES  28  24  85 W21G30    29.76R WCI  15
BLOOMINGTON    FLURRIES  25  21  85 W18G25    29.78R WCI  11
DECATUR        FLURRIES  27  18  69 W23G37    29.83R WCI  12
PEORIA         CLOUDY    23  16  74 NW16G28   29.83R WCI  10
LACON*         FLURRIES  24  19  79 NW17G29   29.80R WCI  11
LINCOLN*       CLOUDY    27  19  72 W15G28    29.84R WCI  15
SPRINGFIELD    CLOUDY    28  17  63 NW25G33   29.87R WCI  13
TAYLORVILLE    CLOUDY    28  18  68 W23G31    29.87R WCI  13
$$

ILZ033-039-045-046-055>057-062-063-251200-
EAST-CENTRAL ILLINOIS

CITY           SKY/WX    TMP DP  RH WIND       PRES   REMARKS
CHAMPAIGN      CLOUDY    28  21  75 W29G37    29.78R WCI  12
RANTOUL*       CLOUDY    30  25  83 W24G35    29.76R WCI  16
MATTOON        CLOUDY    28  22  78 W24G32    29.81R WCI  14
PARIS*         CLOUDY    29  25  84 W26G35    29.80R WCI  15
$$

ILZ079-100>102-251200-
SOUTHWEST ILLINOIS

CITY           SKY/WX    TMP DP  RH WIND       PRES   REMARKS
ALTON          CLOUDY    28  18  64 W23G31    29.94R WCI  14
BELLEVILLE     CLOUDY    30  18  61 W14G23    29.93R WCI  19
CAHOKIA*       CLOUDY    30  18  60 W17G26    29.96R WCI  18
SPARTA*        CLOUDY    30  17  57 W15G24    29.95R WCI  19
$$

ILZ064>066-069>071-074>076-080>082-084>086-088>090-092>094-251200-
SOUTH-CENTRAL ILLINOIS

CITY           SKY/WX    TMP DP  RH WIND       PRES   REMARKS
CARBONDALE     CLOUDY    32  19  58 W15G22    29.94R WCI  22
CAIRO*         CLEAR     32  20  62 NW16G22   29.97R WCI  21
EFFINGHAM*     CLOUDY    30  22  73 W23G30    29.88R WCI  17
MARION         CLOUDY    32  19  59 W12G20    29.94R WCI  23
MT. VERNON     FLURRIES  30  19  63 W8G24     29.92R WCI  22
CENTRALIA*     FLURRIES  30  23  75 NW16G25   29.91R WCI  19
SALEM*         CLOUDY    32  19  60 W22G31    29.89R WCI  19
METROPOLIS*    CLEAR     33  20  58 W12G18    29.96R WCI  24
$$

ILZ067-068-072-073-078-083-087-091-251200-
SOUTHEAST ILLINOIS

CITY           SKY/WX    TMP DP  RH WIND       PRES   REMARKS
LAWRENCEVILLE  CLOUDY    33  24  69 W20       29.85R WCI  21
FLORA*         CLOUDY    32  22  64 W24G32    29.89R WCI  19
FAIRFIELD*     CLOUDY    32  21  64 W9G18     29.89R WCI  24
HARRISBURG*    CLOUDY    33  22  65 NW16G23   29.92R WCI  22
ROBINSON*      CLOUDY    31  24  76 NW25G31   29.85R WCI  17
CARMI*         CLOUDY    32  22  65 W24G37    29.90R WCI  19
$$

ABBREVIATIONS USED IN REMARKS
   TC - TEMPERATURE IN CELSIUS
  WCI - WIND CHILL INDEX
   HX - HEAT INDEX
  VSB - VISIBILITY
$$





USA.gov is the U.S. government's official web portal to all federal, state and local government web resources and services.